Other Surface Observations
Issued by NWS

Home | Current Version | Previous Version | Text Only | Print | Product List | Glossary On
Versions: 1 2 3 4 5 6 7 8 9 10 11 12 13 14 15 16 17 18 19 20 21 22 23 24 25 26 27 28 29 30 31 32 33 34 35 36 37 38 39 40 41 42 43 44 45 46 47 48 49 50
460
SXUS52 KTAE 251506
OSOTAE
OSOTAE
North Florida/South Alabama/Southwest Georgia Weather Roundup
National Weather Service Tallahassee Florida
1100 AM EDT TUE JUL 25 2017

Note: "fair" indicates few or no clouds below 12,000 feet with no
significant weather and/or obstructions to visibility.

!FLZ017-115-028-034-025-251600
...North Florida...

CITY           SKY/WX    TMP DP  RH WIND       PRES   REMARKS
TALLAHASSEE    MOSUNNY   85  74  69 W8        30.11F HX  92
APALACHICOLA   MOSUNNY   87  78  74 NW13      30.12S HX 100
PERRY          MOSUNNY   80  76  89 CALM      30.13S
CROSS CITY     MOSUNNY   80  77  92 CALM      30.18S
JACKSONVILLE   MOSUNNY   87  76  69 W8        30.11S HX  97
$$

!FLZ112-006-005-002-011-251600
...Florida Panhandle...

CITY           SKY/WX    TMP DP  RH WIND       PRES   REMARKS
MARIANNA       MOSUNNY   83  74  74 VRB7      30.11F
BONIFAY        NOT AVBL
PANAMA CITY NW FAIR      85  72  65 NW10      30.12R HX  91
TYNDALL AFB    MOSUNNY   86  74  67 N7        30.12F HX  93
TYND DRONE APT FAIR      85  75  71 NW5       30.12S HX  93
DE FUNIAK SPR  FAIR      81  72  74 NW7       30.13F
EGLIN AFB      PTSUNNY   84  72  67 W5        30.13S HX  90
DESTIN         MOSUNNY   86  73  65 VRB3      30.12F HX  93
HURLBURT       MOSUNNY   86  75  70 VRB7      30.11S HX  94
CRESTVIEW      MOSUNNY   84  72  67 NW5       30.14S
PENSACOLA      LGT RAIN  81  75  82 W7        30.14R
$$

!ALZ063-066-251600
...South Alabama...

CITY           SKY/WX    TMP DP  RH WIND       PRES   REMARKS
DOTHAN         PTSUNNY   82  74  76 W5        30.15F
OZARK CAIRNS   MOSUNNY   82  73  74 NW5       30.12S
FT RUCKER HELI PTSUNNY   82  73  74 SW6       30.11F
RUCKER HELI 3  CLOUDY    80  73  78 W5        30.11F
RUCKER HELI 2  CLOUDY    81  74  79 W3        30.11S
FLORALA APT    PTSUNNY   80  72  76 VRB3      30.15S
ANDALUSIA      CLOUDY    83  73  72 W5        30.12S
TROY           PTSUNNY   78  75  90 CALM      30.14R
EUFALA         CLOUDY    81  74  79 VRB5      30.11S
MOBILE         PTSUNNY   83  75  77 W9        30.14F HX  90
$$

!GAZ120>161-251600
...Southwest and South Central Georgia...

CITY           SKY/WX    TMP DP  RH WIND       PRES   REMARKS
THOMASVILLE    FAIR      86  73  66 W8        30.12F HX  93
BAINBRIDGE     MOSUNNY   86  79  79 W9        30.11F HX  99
MOODY AFB      SUNNY     87  72  60 SW9       30.10F HX  93
VALDOSTA       MOSUNNY   86  75  69 CALM      30.11F HX  95
MOULTRIE       MOSUNNY   82  72  69 W9        30.12F
BLAKELY        MOSUNNY   84  73  70 W6        30.12S HX  91
ALBANY         PTSUNNY   83  74  74 W8        30.12F
TIFTON         FAIR      82  74  74 W7        30.11S
FITZGERALD     CLOUDY    84  76  77 W5        30.13F HX  92
CORDELE        CLOUDY    84  76  77 W6        30.12S HX  93
AMERICUS       CLOUDY    79  77  94 CALM      30.13S
HOMERVILLE     FAIR      88  73  62 W7        30.11F HX  96
$$

!GMZ750-755-770-775-251600
...Coastal and Buoy Obs...

STATION/POSITION TIME  TEMP    WIND        PRES    VSBY  WAVE
                       AIR SEA DIR/SP/G                  HT/PER
                 (UTC) (F)     (DEG/KT/KT) (MB)    (MI)  (FT/S)
KEATON BEACH     1500   85     290/  9/ 12 1019.7F
CEDAR KEY        1400   86     290/  7/  9 1020.9R
C TOWER          NOT AVBL
APALACHICOLA BUO 1350   84 86  270/ 10/ 10 1020.5          2/ 4
PANAMA CITY BUOY 1350   84 85  270/ 14/ 16 1020.0          2/ 4
MOBILE BUOY      1450   84 85  260/ 12/ 14 1020.9R         2/ 3
ORANGE BCH AL BU 1350   82 83  290/  8/ 10 1019.9          1/ 3
$$




USA.gov is the U.S. government's official web portal to all federal, state and local government web resources and services.